Other Public Products
Issued by NWS Charleston, SC

Current Version | Previous Version | Graphics & Text | Print | Product List | Glossary On
Versions: 1 2 3 4 5 6 7 8 9 10 11 12 13 14 15 16 17 18 19 20 21 22 23 24 25 26 27 28 29 30 31 32 33 34 35 36 37 38 39 40 41 42 43 44 45 46 47 48 49 50
323 FPUS82 KCHS 241227 OPUCHS TEST...KCHS/KSAV Gateway Observations...TEST National Weather Service Charleston SC 800 AM EDT MON APR 24 2017 NOTE: "fair" indicates few or no clouds below 12,000 feet with no significant weather and/or obstructions to visibility. SCZ050-WAZ558-NCZ071-TXZ119-213-PAZ071-DCZ001-FLZ074-172-MI076- NYZ176-178-MAZ016-IL014-TNZ027-NJZ106-GAZ044-MD014-241300- ...Gateway Observations for Charleston International... CITY SKY/WX TMP DP RH WIND PRES REMARKS Chas Airport HVY RAIN 68 66 93 S14G26 29.68S VSB 3/4 6HR MIN TEMP: 69; 6HR MAX TEMP: 74; 6HR PCP: 0.37; Seattle LGT RAIN 45 43 93 S6 29.75F 6HR MIN TEMP: 45; 6HR MAX TEMP: 47; 6HR PCP: 0.05; Charlotte RAIN 52 49 89 NE16 29.80F 6HR MIN TEMP: 51; 6HR MAX TEMP: 52; 6HR PCP: 0.52; Dallas DFW PTCLDY 49 43 80 SW3 29.95R 6HR MIN TEMP: 49; 6HR MAX TEMP: 59; Dallas Love PTCLDY 54 45 71 CALM 29.96R 6HR MIN TEMP: 52; 6HR MAX TEMP: 57; Philladelphia CLOUDY 51 42 71 NE5 30.14R 6HR MIN TEMP: 49; 6HR MAX TEMP: 52; Wash National CLOUDY 54 47 77 NE12 30.10R 6HR MIN TEMP: 53; 6HR MAX TEMP: 56; 6HR PCP: TRACE; Baltimore CLOUDY 52 49 89 NE9 30.10R 6HR MIN TEMP: 52; 6HR MAX TEMP: 53; 6HR PCP: TRACE; Miami FOG 71 70 96 VRB3 29.79R VSB 1 6HR MIN TEMP: 70; 6HR MAX TEMP: 71; Detroit MOSUNNY 45 39 79 NE6 30.09R 6HR MIN TEMP: 41; 6HR MAX TEMP: 48; Newark CLOUDY 51 44 77 S3 30.16R 6HR MIN TEMP: 47; 6HR MAX TEMP: 52; Laguardia CLOUDY 51 46 83 S5 30.17R 6HR MIN TEMP: 48; 6HR MAX TEMP: 52; J F K CLOUDY 50 48 93 E7 30.18R 6HR MIN TEMP: 44; 6HR MAX TEMP: 50; Boston Logan MOSUNNY 51 39 63 SW5 30.15S 6HR MIN TEMP: 45; 6HR MAX TEMP: 51; Ft. Lauderdale FOG 69 69 100 W6 29.78R VSB 1/2 6HR MIN TEMP: 68; 6HR MAX TEMP: 70; Chicago O`Hare MOSUNNY 42 38 85 N5 30.02S 6HR MIN TEMP: 40; 6HR MAX TEMP: 43; Chicago Midway MOSUNNY 45 40 82 CALM 30.03R 6HR MIN TEMP: 42; 6HR MAX TEMP: 47; Houston Bush PTCLDY 53 49 86 CALM 29.97R 6HR MIN TEMP: 52; 6HR MAX TEMP: 58; Houston Hobby PTCLDY 55 50 83 CALM 29.96S 6HR MIN TEMP: 54; 6HR MAX TEMP: 59; Nashville CLOUDY 55 52 89 NW8 29.85R 6HR MIN TEMP: 53; 6HR MAX TEMP: 56; Atlanta DRIZZLE 53 51 93 N9 29.76R FOG 6HR MIN TEMP: 52; 6HR MAX TEMP: 54; 6HR PCP: TRACE; $$ GAZ044-118-TXZ119-213-NCZ071-DCZ001-MDZ014-506-PAZ021-071-NJZ106- NYZ176-178-MAZ106-OHZ011-021-055-MIZ076-KYZ091-ILZ014-INZ047- MNZ060-ONZ431-241300- ...Gateway Observations for Savannah International... CITY SKY/WX TMP DP RH WIND PRES REMARKS Savannah Arpt NOT AVBL Atlanta DRIZZLE 53 51 93 N9 29.76R FOG 6HR MIN TEMP: 52; 6HR MAX TEMP: 54; 6HR PCP: TRACE; Charlotte RAIN 52 49 89 NE16 29.80F 6HR MIN TEMP: 51; 6HR MAX TEMP: 52; 6HR PCP: 0.52; Dallas DFW PTCLDY 49 43 80 SW3 29.95R 6HR MIN TEMP: 49; 6HR MAX TEMP: 59; Houston Bush PTCLDY 53 49 86 CALM 29.97R 6HR MIN TEMP: 52; 6HR MAX TEMP: 58; Wash National CLOUDY 54 47 77 NE12 30.10R 6HR MIN TEMP: 53; 6HR MAX TEMP: 56; 6HR PCP: TRACE; Wash Dulles CLOUDY 52 47 83 NE9 30.08F 6HR MIN TEMP: 52; 6HR MAX TEMP: 54; 6HR PCP: 0.02; Baltimore CLOUDY 52 49 89 NE9 30.10R 6HR MIN TEMP: 52; 6HR MAX TEMP: 53; 6HR PCP: TRACE; Philadelphia CLOUDY 51 42 71 NE5 30.14R 6HR MIN TEMP: 49; 6HR MAX TEMP: 52; Newark CLOUDY 51 44 77 S3 30.16R 6HR MIN TEMP: 47; 6HR MAX TEMP: 52; Laguardia CLOUDY 51 46 83 S5 30.17R 6HR MIN TEMP: 48; 6HR MAX TEMP: 52; J F K CLOUDY 50 48 93 E7 30.18R 6HR MIN TEMP: 44; 6HR MAX TEMP: 50; Boston MOSUNNY 51 39 63 SW5 30.15S 6HR MIN TEMP: 45; 6HR MAX TEMP: 51; Pittsburg CLOUDY 49 37 63 NE8 30.04R 6HR MIN TEMP: 45; 6HR MAX TEMP: 54; Akron MOSUNNY 51 33 50 E10 30.03S 6HR MIN TEMP: 41; 6HR MAX TEMP: 51; Cleveland SUNNY 50 38 63 NE9 30.07R 6HR MIN TEMP: 42; 6HR MAX TEMP: 51; Cincinnati SUNNY 51 38 60 NE10 29.93R 6HR MIN TEMP: 48; 6HR MAX TEMP: 56; Columbus SUNNY 50 39 67 NE8 29.95F Detroit MOSUNNY 45 39 79 NE6 30.09R 6HR MIN TEMP: 41; 6HR MAX TEMP: 48; Chicago O`Hare MOSUNNY 42 38 85 N5 30.02S 6HR MIN TEMP: 40; 6HR MAX TEMP: 43; Minneapolis CLOUDY 55 33 43 S9 29.81S 6HR MIN TEMP: 49; 6HR MAX TEMP: 57; Indianapolis MOSUNNY 49 35 58 NE8 29.96S 6HR MIN TEMP: 46; 6HR MAX TEMP: 51; Toronto Canada MOSUNNY 46 36 66 E9 30.18R $$

USA.gov is the U.S. government's official web portal to all federal, state and local government web resources and services.